CPA240 TNCM-KBOS

Flight info

Callsign CPA240
Flight time N/A
Altitude 40000
Route THANK L456 HANCY/M081F400 L456 MEGGG DCT BALTN DCT DASER DCT KAYYT/N0469F400 Y578 JENYY DCT FERNZ OOSHN5
Aircraft A343/H-SDE2E3FGHIJ4J5M1RWXY/LB1D1

Departure

Time 2026-05-04 17:19
Airport Princess Juliana International Airport (TNCM)

Arrival

Time N/A
Airport Boston Logan International Airport (KBOS)
Time Latitude Longitude Altitude Speed Heading
2026-05-04 17:00 18.04332 -63.11293 25 ft 0 kts 352°
2026-05-04 17:03 18.04332 -63.11292 25 ft 0 kts 352°
2026-05-04 17:10 18.04290 -63.11286 26 ft 4 kts 344°
2026-05-04 17:10 18.04273 -63.11270 26 ft 0 kts 241°
2026-05-04 17:14 18.04272 -63.11272 25 ft 2 kts 241°
2026-05-04 17:14 18.04244 -63.11300 29 ft 7 kts 208°
2026-05-04 17:14 18.04141 -63.11296 25 ft 8 kts 171°
2026-05-04 17:15 18.04134 -63.11295 26 ft 0 kts 171°
2026-05-04 17:15 18.04127 -63.11294 25 ft 1 kts 171°
2026-05-04 17:16 18.04043 -63.11315 27 ft 9 kts 230°
2026-05-04 17:16 18.03981 -63.11680 30 ft 21 kts 261°
2026-05-04 17:17 18.03966 -63.11801 26 ft 11 kts 265°
2026-05-04 17:17 18.03953 -63.11909 32 ft 7 kts 103°
2026-05-04 17:18 18.03953 -63.11890 27 ft 0 kts 88°
2026-05-04 17:18 18.03993 -63.11592 26 ft 75 kts 80°
2026-05-04 17:19 18.04258 -63.09702 616 ft 150 kts 84°
2026-05-04 17:19 18.03181 -63.07697 1807 ft 190 kts 151°
2026-05-04 17:20 18.00437 -63.06335 3010 ft 239 kts 153°
2026-05-04 17:20 17.97293 -63.04927 4676 ft 252 kts 154°
2026-05-04 17:20 17.95664 -63.04192 5478 ft 257 kts 154°
2026-05-04 17:21 17.92361 -63.02677 7078 ft 263 kts 154°
2026-05-04 17:21 17.88690 -63.02160 8517 ft 284 kts 194°
2026-05-04 17:22 17.86954 -63.03196 9241 ft 294 kts 220°
2026-05-04 17:22 17.85759 -63.04956 9951 ft 302 kts 246°
2026-05-04 17:23 17.84032 -63.11603 11482 ft 336 kts 259°
2026-05-04 17:23 17.84022 -63.14095 11778 ft 351 kts 281°
2026-05-04 17:23 17.86681 -63.18481 12569 ft 371 kts 318°
2026-05-04 17:24 17.88694 -63.20203 13087 ft 376 kts 323°
2026-05-04 17:24 17.95223 -63.24925 14749 ft 387 kts 325°
2026-05-04 17:25 17.97435 -63.26553 15364 ft 389 kts 324°
2026-05-04 17:25 18.01839 -63.29912 16562 ft 393 kts 323°
2026-05-04 17:26 18.06254 -63.33355 17743 ft 397 kts 322°
2026-05-04 17:26 18.12994 -63.38627 19283 ft 409 kts 322°
2026-05-04 17:27 18.17604 -63.42225 20206 ft 416 kts 323°
2026-05-04 17:27 18.22282 -63.45878 21049 ft 425 kts 323°
2026-05-04 17:28 18.27058 -63.49604 21888 ft 431 kts 323°
2026-05-04 17:29 18.34360 -63.55317 23079 ft 441 kts 324°
2026-05-04 17:29 18.40992 -63.60511 24026 ft 450 kts 324°
2026-05-04 17:30 18.48597 -63.66473 25187 ft 456 kts 324°
2026-05-04 17:31 18.53710 -63.70485 25979 ft 459 kts 324°
2026-05-04 17:31 18.61425 -63.76546 27083 ft 463 kts 324°
2026-05-04 17:32 18.66581 -63.80597 27771 ft 466 kts 323°
2026-05-04 17:33 18.74418 -63.86763 28769 ft 470 kts 323°
2026-05-04 17:33 18.77046 -63.88831 29082 ft 471 kts 323°
2026-05-04 17:34 18.84962 -63.95074 29902 ft 476 kts 323°
2026-05-04 17:34 18.87620 -63.97171 30185 ft 477 kts 323°
2026-05-04 17:35 18.95613 -64.03480 31146 ft 476 kts 323°
2026-05-04 17:35 19.00869 -64.07635 31764 ft 475 kts 323°
2026-05-04 17:35 19.03512 -64.09725 32068 ft 474 kts 323°
2026-05-04 17:36 19.06155 -64.11814 32374 ft 473 kts 322°
2026-05-04 17:36 19.08786 -64.13895 32672 ft 472 kts 322°
2026-05-04 17:36 19.11418 -64.15977 32954 ft 472 kts 322°
2026-05-04 17:36 19.14045 -64.18057 33237 ft 471 kts 322°
2026-05-04 17:37 19.16667 -64.20134 33498 ft 471 kts 322°
2026-05-04 17:37 19.19286 -64.22210 33757 ft 470 kts 322°
2026-05-04 17:37 19.21896 -64.24279 34052 ft 469 kts 322°
2026-05-04 17:37 19.24512 -64.26355 34291 ft 468 kts 322°
2026-05-04 17:38 19.27114 -64.28421 34545 ft 468 kts 322°
2026-05-04 17:38 19.29716 -64.30487 34785 ft 467 kts 322°
2026-05-04 17:38 19.32318 -64.32556 35024 ft 467 kts 322°
2026-05-04 17:38 19.34916 -64.34621 35272 ft 466 kts 322°
2026-05-04 17:39 19.40094 -64.38738 35713 ft 465 kts 322°
2026-05-04 17:39 19.42644 -64.40767 35911 ft 464 kts 322°
2026-05-04 17:39 19.45228 -64.42824 36108 ft 464 kts 322°
2026-05-04 17:40 19.47816 -64.44883 36310 ft 464 kts 322°
2026-05-04 17:40 19.50398 -64.46939 36503 ft 464 kts 322°
2026-05-04 17:40 19.52975 -64.48993 36694 ft 463 kts 322°
2026-05-04 17:40 19.55549 -64.51045 36881 ft 463 kts 322°
2026-05-04 17:41 19.58112 -64.53089 37118 ft 461 kts 322°
2026-05-04 17:41 19.60675 -64.55133 37324 ft 459 kts 322°
2026-05-04 17:41 19.63225 -64.57168 37560 ft 457 kts 322°
2026-05-04 17:41 19.65762 -64.59193 37769 ft 456 kts 322°
2026-05-04 17:42 19.68291 -64.61213 37936 ft 455 kts 322°
2026-05-04 17:42 19.70820 -64.63234 38097 ft 454 kts 322°
2026-05-04 17:42 19.73314 -64.65229 38226 ft 454 kts 322°
2026-05-04 17:42 19.75842 -64.67253 38377 ft 454 kts 322°
2026-05-04 17:43 19.78363 -64.69269 38540 ft 453 kts 322°
2026-05-04 17:43 19.80882 -64.71283 38670 ft 453 kts 322°
2026-05-04 17:43 19.83399 -64.73296 38792 ft 453 kts 322°
2026-05-04 17:43 19.85910 -64.75307 38897 ft 453 kts 322°
2026-05-04 17:44 19.90941 -64.79340 39120 ft 453 kts 322°
2026-05-04 17:44 19.93457 -64.81359 39229 ft 453 kts 322°
2026-05-04 17:44 19.95971 -64.83376 39325 ft 452 kts 322°
2026-05-04 17:45 19.98478 -64.85390 39479 ft 451 kts 322°
2026-05-04 17:45 20.00956 -64.87380 39613 ft 450 kts 322°
2026-05-04 17:45 20.03449 -64.89383 39752 ft 449 kts 322°
2026-05-04 17:45 20.05943 -64.91387 39891 ft 448 kts 322°
2026-05-04 17:46 20.10918 -64.95387 40039 ft 448 kts 321°
2026-05-04 17:46 20.15906 -64.99402 40077 ft 450 kts 321°
2026-05-04 17:47 20.20860 -65.03393 40076 ft 448 kts 321°
2026-05-04 17:47 20.25842 -65.07408 40063 ft 448 kts 321°
2026-05-04 17:48 20.30800 -65.11409 40075 ft 447 kts 321°
2026-05-04 17:48 20.35755 -65.15410 40059 ft 447 kts 321°
2026-05-04 17:49 20.40717 -65.19420 40075 ft 447 kts 321°
2026-05-04 17:49 20.45675 -65.23430 40056 ft 447 kts 321°
2026-05-04 17:50 20.50595 -65.27413 40063 ft 446 kts 321°
2026-05-04 17:50 20.55550 -65.31427 40056 ft 447 kts 321°
2026-05-04 17:51 20.60500 -65.35441 40070 ft 446 kts 321°
2026-05-04 17:51 20.65445 -65.39454 40058 ft 446 kts 321°
2026-05-04 17:52 20.70385 -65.43466 40069 ft 446 kts 321°
2026-05-04 17:52 20.75319 -65.47476 40064 ft 446 kts 321°
2026-05-04 17:53 20.80261 -65.51497 40068 ft 446 kts 321°
2026-05-04 17:53 20.85163 -65.55488 40073 ft 445 kts 321°
2026-05-04 17:54 20.90095 -65.59507 40058 ft 446 kts 321°
2026-05-04 17:54 20.95033 -65.63535 40052 ft 446 kts 321°
2026-05-04 17:55 20.99953 -65.67552 40054 ft 445 kts 320°
2026-05-04 17:55 21.04891 -65.71585 40055 ft 445 kts 320°
2026-05-04 17:56 21.09780 -65.75583 40063 ft 445 kts 320°
2026-05-04 17:56 21.14703 -65.79612 40065 ft 445 kts 320°
2026-05-04 17:57 21.19627 -65.83645 40071 ft 445 kts 320°
2026-05-04 17:57 21.24542 -65.87675 40056 ft 445 kts 320°
2026-05-04 17:58 21.29464 -65.91713 40062 ft 445 kts 320°
2026-05-04 17:58 21.34385 -65.95755 40075 ft 444 kts 320°
2026-05-04 17:59 21.39263 -65.99765 40057 ft 444 kts 320°
2026-05-04 18:00 21.47073 -66.05104 40050 ft 449 kts 335°
2026-05-04 18:00 21.53101 -66.06968 40059 ft 453 kts 345°
2026-05-04 18:01 21.59333 -66.08199 40056 ft 455 kts 346°
2026-05-04 18:01 21.65574 -66.09351 40055 ft 455 kts 346°
2026-05-04 18:02 21.74919 -66.11193 40049 ft 455 kts 346°
2026-05-04 18:02 21.81105 -66.12452 40048 ft 455 kts 345°
2026-05-04 18:03 21.87320 -66.13721 40052 ft 455 kts 345°
2026-05-04 18:03 21.93557 -66.14993 40057 ft 455 kts 345°
2026-05-04 18:04 21.99782 -66.16262 40053 ft 455 kts 345°
2026-05-04 18:05 22.09114 -66.18171 40048 ft 455 kts 345°
2026-05-04 18:05 22.15342 -66.19441 40059 ft 455 kts 345°
2026-05-04 18:06 22.24630 -66.21337 40062 ft 455 kts 345°
2026-05-04 18:06 22.30851 -66.22611 40057 ft 455 kts 345°
2026-05-04 18:07 22.37072 -66.23886 40067 ft 455 kts 345°
2026-05-04 18:07 22.43297 -66.25163 40055 ft 455 kts 345°
2026-05-04 18:08 22.49516 -66.26439 40066 ft 454 kts 345°
2026-05-04 18:08 22.55643 -66.27696 40055 ft 448 kts 344°
2026-05-04 18:09 22.67905 -66.30221 40063 ft 448 kts 344°
2026-05-04 18:10 22.74044 -66.31487 40071 ft 449 kts 344°
2026-05-04 18:10 22.80179 -66.32753 40057 ft 449 kts 344°
2026-05-04 18:11 22.86314 -66.34019 40054 ft 449 kts 344°
2026-05-04 18:11 22.92449 -66.35287 40056 ft 449 kts 344°
2026-05-04 18:12 22.98550 -66.36550 40069 ft 449 kts 344°
2026-05-04 18:12 23.04703 -66.37823 40059 ft 449 kts 344°
2026-05-04 18:13 23.10850 -66.39096 40054 ft 449 kts 343°
2026-05-04 18:14 23.20075 -66.41009 40054 ft 450 kts 343°
2026-05-04 18:14 23.26184 -66.42278 40058 ft 450 kts 343°
2026-05-04 18:15 23.38501 -66.44841 40062 ft 450 kts 343°
2026-05-04 18:16 23.44650 -66.46121 40059 ft 450 kts 343°
2026-05-04 18:16 23.50824 -66.47408 40063 ft 451 kts 343°
2026-05-04 18:17 23.60045 -66.49333 40071 ft 451 kts 343°
2026-05-04 18:18 23.68257 -66.51049 40061 ft 451 kts 343°
2026-05-04 18:18 23.74415 -66.52338 40058 ft 451 kts 343°
2026-05-04 18:19 23.83664 -66.54275 40059 ft 451 kts 343°
2026-05-04 18:19 23.89841 -66.55571 40062 ft 451 kts 343°
2026-05-04 18:20 23.96014 -66.56867 40067 ft 451 kts 343°
2026-05-04 18:20 24.02151 -66.58157 40075 ft 451 kts 343°
2026-05-04 18:21 24.08327 -66.59456 40061 ft 452 kts 343°
2026-05-04 18:21 24.14518 -66.60760 40076 ft 453 kts 343°
2026-05-04 18:22 24.20704 -66.62064 40067 ft 453 kts 343°
2026-05-04 18:22 24.26899 -66.63371 40076 ft 453 kts 343°
2026-05-04 18:23 24.33095 -66.64680 40051 ft 453 kts 342°
2026-05-04 18:23 24.39293 -66.65990 40052 ft 453 kts 342°
2026-05-04 18:24 24.45456 -66.67294 40050 ft 453 kts 342°
2026-05-04 18:24 24.51655 -66.68607 40054 ft 454 kts 342°
2026-05-04 18:25 24.57863 -66.69924 40051 ft 453 kts 342°
2026-05-04 18:25 24.64063 -66.71239 40052 ft 453 kts 342°
2026-05-04 18:26 24.70218 -66.72547 40049 ft 453 kts 342°
2026-05-04 18:26 24.76414 -66.73865 40057 ft 453 kts 342°
2026-05-04 18:27 24.82614 -66.75186 40068 ft 454 kts 342°
2026-05-04 18:27 24.88825 -66.76509 40060 ft 454 kts 342°
2026-05-04 18:28 24.94988 -66.77824 40057 ft 454 kts 342°
2026-05-04 18:28 25.01195 -66.79149 40076 ft 454 kts 342°
2026-05-04 18:29 25.07408 -66.80478 40069 ft 455 kts 341°
2026-05-04 18:29 25.13628 -66.81809 40076 ft 455 kts 341°
2026-05-04 18:30 25.22952 -66.83807 40076 ft 455 kts 341°
2026-05-04 18:31 25.29175 -66.85142 40076 ft 455 kts 341°
2026-05-04 18:31 25.35404 -66.86480 40062 ft 456 kts 341°
2026-05-04 18:32 25.41631 -66.87819 40076 ft 456 kts 341°
2026-05-04 18:32 25.47819 -66.89151 40076 ft 456 kts 341°
2026-05-04 18:33 25.54089 -66.90501 40077 ft 456 kts 341°
2026-05-04 18:33 25.60288 -66.91838 40080 ft 456 kts 341°
2026-05-04 18:34 25.66527 -66.93186 40081 ft 457 kts 341°
2026-05-04 18:34 25.72770 -66.94535 40081 ft 457 kts 341°
2026-05-04 18:35 25.78969 -66.95876 40082 ft 456 kts 341°
2026-05-04 18:35 25.85206 -66.97227 40082 ft 456 kts 341°
2026-05-04 18:36 25.91441 -66.98579 40082 ft 456 kts 341°
2026-05-04 18:36 25.97681 -66.99934 40083 ft 456 kts 341°
2026-05-04 18:37 26.03922 -67.01290 40081 ft 457 kts 340°
2026-05-04 18:37 26.10181 -67.02654 40083 ft 459 kts 340°
2026-05-04 18:38 26.16462 -67.04022 40081 ft 460 kts 340°
2026-05-04 18:38 26.22739 -67.05389 40082 ft 460 kts 340°
2026-05-04 18:39 26.28980 -67.06751 40082 ft 460 kts 340°
2026-05-04 18:39 26.35268 -67.08124 40082 ft 460 kts 340°
2026-05-04 18:40 26.41545 -67.09497 40082 ft 459 kts 340°
2026-05-04 18:40 26.47822 -67.10872 40082 ft 459 kts 340°
2026-05-04 18:41 26.54098 -67.12248 40081 ft 460 kts 340°
2026-05-04 18:41 26.60384 -67.13629 40090 ft 460 kts 340°
2026-05-04 18:42 26.66642 -67.15004 40091 ft 460 kts 340°
2026-05-04 18:42 26.72936 -67.16387 40091 ft 460 kts 340°
2026-05-04 18:43 26.79226 -67.17772 40090 ft 460 kts 340°
2026-05-04 18:43 26.85520 -67.19161 40092 ft 461 kts 339°
2026-05-04 18:44 26.91820 -67.20551 40091 ft 461 kts 339°
2026-05-04 18:44 26.98124 -67.21944 40091 ft 461 kts 339°
2026-05-04 18:45 27.04389 -67.23330 40098 ft 462 kts 339°
2026-05-04 18:45 27.10712 -67.24732 40110 ft 463 kts 339°
2026-05-04 18:46 27.17031 -67.26133 40110 ft 463 kts 339°
2026-05-04 18:46 27.23353 -67.27536 40110 ft 463 kts 339°
2026-05-04 18:47 27.29686 -67.28943 40110 ft 464 kts 339°
2026-05-04 18:47 27.35978 -67.30343 40110 ft 464 kts 339°
2026-05-04 18:48 27.42312 -67.31754 40109 ft 464 kts 339°
2026-05-04 18:48 27.48680 -67.33175 40110 ft 465 kts 339°
2026-05-04 18:49 27.55028 -67.34592 40117 ft 465 kts 339°
2026-05-04 18:49 27.61375 -67.36011 40119 ft 465 kts 339°
2026-05-04 18:50 27.67715 -67.37430 40119 ft 465 kts 339°
2026-05-04 18:50 27.74045 -67.38850 40120 ft 466 kts 339°
2026-05-04 18:51 27.80405 -67.40277 40119 ft 466 kts 339°
2026-05-04 18:51 27.86772 -67.41706 40119 ft 466 kts 339°
2026-05-04 18:52 27.93138 -67.43138 40119 ft 466 kts 339°
2026-05-04 18:52 27.99500 -67.44570 40119 ft 466 kts 338°
2026-05-04 18:53 28.05866 -67.46005 40119 ft 466 kts 338°
2026-05-04 18:53 28.12200 -67.47436 40119 ft 467 kts 338°
2026-05-04 18:54 28.18572 -67.48876 40129 ft 467 kts 338°
2026-05-04 18:54 28.24955 -67.50320 40131 ft 467 kts 338°
2026-05-04 18:55 28.31347 -67.51769 40129 ft 468 kts 338°
2026-05-04 18:55 28.37848 -67.52843 40129 ft 480 kts 347°
2026-05-04 18:55 28.41191 -67.53037 40130 ft 481 kts 347°
2026-05-04 18:56 28.47858 -67.53280 40126 ft 483 kts 348°
2026-05-04 18:56 28.54581 -67.53469 40126 ft 483 kts 348°
2026-05-04 18:57 28.61311 -67.53669 40130 ft 483 kts 348°
2026-05-04 18:57 28.68024 -67.53883 40129 ft 483 kts 348°
2026-05-04 18:58 28.74762 -67.54104 40138 ft 484 kts 348°
2026-05-04 18:58 28.81494 -67.54324 40137 ft 484 kts 348°
2026-05-04 18:59 28.88182 -67.54541 40136 ft 484 kts 348°
2026-05-04 18:59 28.94930 -67.54762 40138 ft 485 kts 348°
2026-05-04 19:00 29.01680 -67.54983 40137 ft 485 kts 348°
2026-05-04 19:00 29.08438 -67.55204 40138 ft 486 kts 348°
2026-05-04 19:01 29.15203 -67.55426 40146 ft 487 kts 348°
2026-05-04 19:01 29.21983 -67.55647 40146 ft 487 kts 348°
2026-05-04 19:02 29.28766 -67.55870 40147 ft 488 kts 348°
2026-05-04 19:02 29.35549 -67.56093 40146 ft 488 kts 348°
2026-05-04 19:03 29.42293 -67.56315 40146 ft 488 kts 348°
2026-05-04 19:03 29.49086 -67.56540 40147 ft 489 kts 348°
2026-05-04 19:04 29.55893 -67.56764 40146 ft 489 kts 348°
2026-05-04 19:04 29.62692 -67.56988 40146 ft 489 kts 348°
2026-05-04 19:05 29.69496 -67.57213 40146 ft 489 kts 348°
2026-05-04 19:05 29.76295 -67.57439 40146 ft 489 kts 348°
2026-05-04 19:06 29.81957 -67.57627 40151 ft 489 kts 348°
2026-05-04 19:06 29.88762 -67.57853 40156 ft 489 kts 348°
2026-05-04 19:07 29.96659 -67.58116 40132 ft 489 kts 348°
2026-05-04 19:07 30.02362 -67.58306 40126 ft 489 kts 348°
2026-05-04 19:08 30.09178 -67.58535 40127 ft 491 kts 348°
2026-05-04 19:08 30.15969 -67.58763 40126 ft 492 kts 348°
2026-05-04 19:09 30.22818 -67.58991 40136 ft 492 kts 348°
2026-05-04 19:09 30.29677 -67.59220 40137 ft 492 kts 348°
2026-05-04 19:10 30.35372 -67.59411 40137 ft 492 kts 348°
2026-05-04 19:10 30.43401 -67.59682 40137 ft 493 kts 348°
2026-05-04 19:11 30.50219 -67.59911 40137 ft 493 kts 348°
2026-05-04 19:11 30.57093 -67.60143 40138 ft 494 kts 348°
2026-05-04 19:12 30.67420 -67.60492 40136 ft 495 kts 348°
2026-05-04 19:13 30.74344 -67.60631 40138 ft 499 kts 351°
2026-05-04 19:13 30.81305 -67.60530 40137 ft 501 kts 351°
2026-05-04 19:14 30.88222 -67.60416 40137 ft 500 kts 351°
2026-05-04 19:14 30.95197 -67.60340 40138 ft 501 kts 351°
2026-05-04 19:15 31.02183 -67.60285 40138 ft 503 kts 351°
2026-05-04 19:15 31.09185 -67.60233 40138 ft 504 kts 351°
2026-05-04 19:16 31.16207 -67.60179 40138 ft 505 kts 351°
2026-05-04 19:16 31.23237 -67.60124 40137 ft 506 kts 351°
2026-05-04 19:17 31.30254 -67.60069 40138 ft 507 kts 351°
2026-05-04 19:17 31.37317 -67.60013 40137 ft 507 kts 351°
2026-05-04 19:18 31.44385 -67.59956 40137 ft 507 kts 350°
2026-05-04 19:18 31.51459 -67.59900 40138 ft 509 kts 351°
2026-05-04 19:19 31.58536 -67.59845 40146 ft 509 kts 351°
2026-05-04 19:19 31.65633 -67.59788 40146 ft 510 kts 351°
2026-05-04 19:20 31.72742 -67.59732 40147 ft 511 kts 351°
2026-05-04 19:20 31.79814 -67.59676 40147 ft 511 kts 351°
2026-05-04 19:21 31.86931 -67.59618 40147 ft 512 kts 351°
2026-05-04 19:21 31.94065 -67.59561 40147 ft 512 kts 351°
2026-05-04 19:22 32.01187 -67.59504 40146 ft 512 kts 351°
2026-05-04 19:22 32.08327 -67.59447 40147 ft 513 kts 351°
2026-05-04 19:23 32.15432 -67.59392 40146 ft 514 kts 350°
2026-05-04 19:23 32.22588 -67.59333 40146 ft 514 kts 350°
2026-05-04 19:24 32.29750 -67.59275 40146 ft 514 kts 350°
2026-05-04 19:24 32.36901 -67.59217 40147 ft 514 kts 350°
2026-05-04 19:25 32.44056 -67.59159 40141 ft 514 kts 350°
2026-05-04 19:25 32.51219 -67.59101 40137 ft 514 kts 350°
2026-05-04 19:26 32.58379 -67.59044 40138 ft 514 kts 350°
2026-05-04 19:26 32.65498 -67.58986 40137 ft 514 kts 350°
2026-05-04 19:27 32.72654 -67.58928 40137 ft 514 kts 350°
2026-05-04 19:27 32.79822 -67.58870 40137 ft 514 kts 350°
2026-05-04 19:28 32.86982 -67.58812 40137 ft 514 kts 350°
2026-05-04 19:28 32.94144 -67.58753 40137 ft 514 kts 350°
2026-05-04 19:29 33.01257 -67.58695 40138 ft 515 kts 350°
2026-05-04 19:29 33.08429 -67.58637 40137 ft 515 kts 350°
2026-05-04 19:30 33.15595 -67.58578 40136 ft 515 kts 350°
2026-05-04 19:30 33.22759 -67.58519 40130 ft 515 kts 350°
2026-05-04 19:31 33.29936 -67.58460 40126 ft 515 kts 350°
2026-05-04 19:31 33.37107 -67.58400 40126 ft 515 kts 350°
2026-05-04 19:32 33.44235 -67.58342 40119 ft 515 kts 350°
2026-05-04 19:32 33.51420 -67.58282 40118 ft 515 kts 350°
2026-05-04 19:33 33.58584 -67.58223 40117 ft 515 kts 350°
2026-05-04 19:33 33.65773 -67.58164 40119 ft 517 kts 350°
2026-05-04 19:34 33.72962 -67.58105 40119 ft 517 kts 350°
2026-05-04 19:34 33.80113 -67.58045 40110 ft 517 kts 350°
2026-05-04 19:35 33.87311 -67.57984 40109 ft 517 kts 350°
2026-05-04 19:35 33.94503 -67.57924 40118 ft 517 kts 350°
2026-05-04 19:36 34.01693 -67.57864 40110 ft 517 kts 350°
2026-05-04 19:36 34.08893 -67.57804 40110 ft 517 kts 350°
2026-05-04 19:37 34.16104 -67.57748 40109 ft 517 kts 349°
2026-05-04 19:37 34.23310 -67.57736 40109 ft 517 kts 349°
2026-05-04 19:38 34.30507 -67.57740 40110 ft 517 kts 349°
2026-05-04 19:38 34.37712 -67.57739 40110 ft 517 kts 349°
2026-05-04 19:39 34.44867 -67.57733 40103 ft 518 kts 349°
2026-05-04 19:39 34.52077 -67.57727 40100 ft 518 kts 349°
2026-05-04 19:40 34.59305 -67.57720 40100 ft 519 kts 349°
2026-05-04 19:40 34.66528 -67.57713 40101 ft 519 kts 349°
2026-05-04 19:41 34.73764 -67.57706 40094 ft 520 kts 349°
2026-05-04 19:41 34.81007 -67.57700 40091 ft 521 kts 349°
2026-05-04 19:42 34.88265 -67.57694 40091 ft 523 kts 349°
2026-05-04 19:42 34.95547 -67.57686 40091 ft 523 kts 348°
2026-05-04 19:43 35.02844 -67.57676 40090 ft 524 kts 348°
2026-05-04 19:43 35.10102 -67.57667 40091 ft 525 kts 348°
2026-05-04 19:44 35.17407 -67.57659 40082 ft 525 kts 348°
2026-05-04 19:44 35.24733 -67.57657 40083 ft 528 kts 348°
2026-05-04 19:45 35.32092 -67.57647 40082 ft 529 kts 348°
2026-05-04 19:45 35.39455 -67.57637 40081 ft 529 kts 348°
2026-05-04 19:46 35.46783 -67.57632 40078 ft 531 kts 348°
2026-05-04 19:46 35.54183 -67.57629 40076 ft 533 kts 348°
2026-05-04 19:47 35.61608 -67.57623 40077 ft 535 kts 348°
2026-05-04 19:47 35.69055 -67.57612 40076 ft 536 kts 348°
2026-05-04 19:48 35.76519 -67.57606 40077 ft 536 kts 348°
2026-05-04 19:48 35.83978 -67.57598 40072 ft 537 kts 348°
2026-05-04 19:49 35.91455 -67.57592 40062 ft 537 kts 348°
2026-05-04 19:49 35.98938 -67.57585 40057 ft 537 kts 347°
2026-05-04 19:50 36.06418 -67.57575 40064 ft 538 kts 347°
2026-05-04 19:50 36.13913 -67.57566 40061 ft 538 kts 347°
2026-05-04 19:51 36.21359 -67.57561 40058 ft 538 kts 347°
2026-05-04 19:51 36.28860 -67.57550 40058 ft 538 kts 348°
2026-05-04 19:52 36.36349 -67.57544 40044 ft 538 kts 347°
2026-05-04 19:52 36.43840 -67.57536 40046 ft 538 kts 347°
2026-05-04 19:53 36.51307 -67.57525 40038 ft 536 kts 347°
2026-05-04 19:53 36.58767 -67.57519 40038 ft 536 kts 347°
2026-05-04 19:54 36.64966 -67.57517 40036 ft 535 kts 347°
2026-05-04 19:54 36.73623 -67.57506 40038 ft 535 kts 347°
2026-05-04 19:55 36.81057 -67.57498 40027 ft 534 kts 347°
2026-05-04 19:55 36.87279 -67.57493 40025 ft 534 kts 347°
2026-05-04 19:56 36.94671 -67.57487 40028 ft 535 kts 347°
2026-05-04 19:56 37.02116 -67.57481 40027 ft 535 kts 347°
2026-05-04 19:57 37.09558 -67.57472 40018 ft 534 kts 347°
2026-05-04 19:57 37.16994 -67.57464 40016 ft 534 kts 347°
2026-05-04 19:58 37.24446 -67.57457 40018 ft 535 kts 347°
2026-05-04 19:58 37.32104 -67.57400 40904 ft 413 kts 346°
2026-05-04 19:59 37.36770 -67.57271 41857 ft 380 kts 345°
2026-05-04 19:59 37.39265 -67.57170 42645 ft 358 kts 347°
2026-05-04 19:59 37.42547 -67.57008 42544 ft 363 kts 348°
2026-05-04 19:59 37.45144 -67.56926 41967 ft 384 kts 347°
2026-05-04 20:00 37.47878 -67.56892 41616 ft 399 kts 346°
2026-05-04 20:00 37.49751 -67.56864 41773 ft 395 kts 346°
2026-05-04 20:00 37.53368 -67.56756 41843 ft 400 kts 348°
2026-05-04 20:01 37.58097 -67.56594 41683 ft 412 kts 347°
2026-05-04 20:01 37.60973 -67.56401 41489 ft 429 kts 352°
2026-05-04 20:01 37.64004 -67.55940 41276 ft 445 kts 355°
2026-05-04 20:02 37.70251 -67.55006 41139 ft 458 kts 353°
2026-05-04 20:02 37.73475 -67.54617 40212 ft 483 kts 352°
2026-05-04 20:02 37.76957 -67.54322 39079 ft 518 kts 350°
2026-05-04 20:02 37.80647 -67.54150 38322 ft 542 kts 348°